| time (UTC) | temp F | wind direction | speed MPH | gust MPH | rain 1hr in | rain 24hr in | rain mn in | humidity % | barometer mb |
| 20260504150122 | 62 | 185 | 0.0 | 3.0 | 0.00 | 0.00 | 0.00 | 67 | 1009.9 |
| 20260504141145 | 62 | 247 | 0.0 | 3.0 | 0.00 | 0.00 | 0.00 | 67 | 1009.5 |
| 20260504140124 | 62 | 27 | 1.0 | 7.0 | 0.00 | 0.00 | 0.00 | 66 | 1009.4 |
| 20260504130123 | 61 | 90 | 0.0 | 3.0 | 0.00 | 0.00 | 0.00 | 68 | 1009.0 |
| 20260504120123 | 61 | 90 | 0.0 | 0.0 | 0.00 | 0.00 | 0.00 | 64 | 1009.0 |
| 20260504110123 | 62 | 90 | 0.0 | 3.0 | 0.00 | 0.00 | 0.00 | 62 | 1009.1 |
| 20260504100121 | 60 | 90 | 0.0 | 0.0 | 0.00 | 0.00 | 0.00 | 69 | 1009.0 |
| 20260504090124 | 61 | 113 | 0.0 | 0.0 | 0.00 | 0.00 | 0.00 | 65 | 1008.8 |
| 20260504081144 | 62 | 113 | 0.0 | 3.0 | 0.00 | 0.00 | 0.00 | 66 | 1008.7 |
| 20260504080123 | 62 | 113 | 0.0 | 3.0 | 0.00 | 0.00 | 0.00 | 67 | 1008.5 |
| 20260504070144 | 62 | 113 | 0.0 | 0.0 | 0.00 | 0.00 | 0.00 | 66 | 1008.4 |
| 20260504060144 | 65 | 113 | 0.0 | 0.0 | 0.00 | 0.00 | 0.00 | 66 | 1008.5 |
| 20260504050123 | 67 | 113 | 0.0 | 0.0 | 0.00 | 0.00 | 0.00 | 58 | 1008.7 |
| 20260504045122 | 68 | 113 | 0.0 | 2.0 | 0.00 | 0.00 | 0.00 | 57 | 1008.7 |
| 20260504044121 | 69 | 113 | 0.0 | 2.0 | 0.00 | 0.00 | 0.00 | 56 | 1008.6 |
| 20260504043143 | 69 | 45 | 0.0 | 2.0 | 0.00 | 0.00 | 0.00 | 56 | 1008.6 |
| 20260504042123 | 69 | 82 | 0.0 | 4.0 | 0.00 | 0.00 | 0.00 | 56 | 1008.6 |
| 20260504041123 | 70 | 105 | 0.0 | 2.0 | 0.00 | 0.00 | 0.00 | 54 | 1008.7 |
| 20260504040121 | 71 | 90 | 0.0 | 2.0 | 0.00 | 0.00 | 0.00 | 52 | 1008.7 |
| 20260504035123 | 73 | 90 | 0.0 | 3.0 | 0.00 | 0.00 | 0.00 | 51 | 1008.7 |
| 20260504034144 | 74 | 113 | 0.0 | 3.0 | 0.00 | 0.00 | 0.00 | 48 | 1008.6 |
| 20260504033123 | 77 | 135 | 0.0 | 0.0 | 0.00 | 0.00 | 0.00 | 46 | 1008.6 |
| 20260504032122 | 77 | 113 | 0.0 | 2.0 | 0.00 | 0.00 | 0.00 | 48 | 1008.6 |
| 20260504031123 | 75 | 113 | 0.0 | 3.0 | 0.00 | 0.00 | 0.00 | 51 | 1008.7 |
| 20260504030121 | 77 | 113 | 0.0 | 2.0 | 0.00 | 0.00 | 0.00 | 48 | 1008.7 |
| 20260504024124 | 81 | 180 | 0.0 | 0.0 | 0.00 | 0.00 | 0.00 | 40 | 1008.7 |
| 20260504023123 | 81 | 180 | 0.0 | 0.0 | 0.00 | 0.00 | 0.00 | 40 | 1008.8 |
| 20260504022122 | 81 | 270 | 0.0 | 0.0 | 0.00 | 0.00 | 0.00 | 40 | 1008.9 |
| 20260504021123 | 81 | 270 | 0.0 | 0.0 | 0.00 | 0.00 | 0.00 | 40 | 1008.9 |
| 20260504020145 | 84 | 270 | 0.0 | 0.0 | 0.00 | 0.00 | 0.00 | 32 | 1009.0 |
| 20260504015124 | 84 | 270 | 0.0 | 0.0 | 0.00 | 0.00 | 0.00 | 32 | 1009.0 |
| 20260504014122 | 84 | 23 | 0.0 | 0.0 | 0.00 | 0.00 | 0.00 | 32 | 1009.2 |
| 20260504013144 | 84 | 23 | 0.0 | 0.0 | 0.00 | 0.00 | 0.00 | 32 | 1009.2 |
| 20260504012145 | 84 | 270 | 0.0 | 0.0 | 0.00 | 0.00 | 0.00 | 32 | 1009.5 |
| 20260504011123 | 84 | 270 | 1.0 | 2.0 | 0.00 | 0.00 | 0.00 | 32 | 1009.5 |
| 20260504010122 | 81 | 270 | 1.0 | 2.0 | 0.00 | 0.00 | 0.00 | 38 | 1009.7 |
| 20260504005124 | 81 | 42 | 3.0 | 6.0 | 0.00 | 0.00 | 0.00 | 38 | 1009.7 |
| 20260504004143 | 81 | 45 | 4.0 | 6.0 | 0.00 | 0.00 | 0.00 | 38 | 1010.0 |
| 20260504003143 | 81 | 252 | 3.0 | 6.0 | 0.00 | 0.00 | 0.00 | 38 | 1010.2 |
| 20260504002122 | 81 | 247 | 3.0 | 4.0 | 0.00 | 0.00 | 0.00 | 38 | 1010.2 |
| 20260504001124 | 81 | 247 | 3.0 | 4.0 | 0.00 | 0.00 | 0.00 | 38 | 1010.2 |
| 20260504000122 | 79 | 247 | 3.0 | 4.0 | 0.00 | 0.00 | 0.00 | 41 | 1010.5 |
| 20260503235124 | 79 | 266 | 3.0 | 4.0 | 0.00 | 0.00 | 0.00 | 41 | 1010.5 |
| 20260503234124 | 79 | 270 | 3.0 | 4.0 | 0.00 | 0.00 | 0.00 | 41 | 1010.8 |
| 20260503233123 | 79 | 270 | 3.0 | 5.0 | 0.00 | 0.00 | 0.00 | 41 | 1010.9 |
| 20260503232122 | 79 | 270 | 3.0 | 5.0 | 0.00 | 0.00 | 0.00 | 41 | 1010.9 |
| 20260503231122 | 79 | 270 | 5.0 | 8.0 | 0.00 | 0.00 | 0.00 | 41 | 1010.9 |
| 20260503230144 | 77 | 270 | 5.0 | 8.0 | 0.00 | 0.00 | 0.00 | 50 | 1011.2 |
| 20260503225124 | 77 | 259 | 2.0 | 8.0 | 0.00 | 0.00 | 0.00 | 50 | 1011.2 |
| 20260503224123 | 77 | 247 | 1.0 | 2.0 | 0.00 | 0.00 | 0.00 | 50 | 1011.7 |
| 20260503223145 | 77 | 225 | 6.0 | 10.0 | 0.00 | 0.00 | 0.00 | 50 | 1011.8 |
| 20260503222124 | 77 | 225 | 6.0 | 10.0 | 0.00 | 0.00 | 0.00 | 50 | 1011.8 |
| 20260503221124 | 77 | 314 | 3.0 | 10.0 | 0.00 | 0.00 | 0.00 | 50 | 1011.8 |
| 20260503220143 | 77 | 360 | 2.0 | 3.0 | 0.00 | 0.00 | 0.00 | 50 | 1012.1 |
| 20260503215122 | 77 | 360 | 2.0 | 3.0 | 0.00 | 0.00 | 0.00 | 50 | 1012.1 |
| 20260503214122 | 74 | 360 | 2.0 | 3.0 | 0.00 | 0.00 | 0.00 | 62 | 1012.2 |
| 20260503213123 | 74 | 360 | 0.0 | 3.0 | 0.00 | 0.00 | 0.00 | 62 | 1012.2 |
| 20260503212124 | 71 | 360 | 0.0 | 0.0 | 0.00 | 0.00 | 0.00 | 63 | 1012.5 |
| 20260503211122 | 71 | 113 | 2.0 | 4.0 | 0.00 | 0.00 | 0.00 | 63 | 1012.5 |
| 20260503210123 | 71 | 113 | 3.0 | 4.0 | 0.00 | 0.00 | 0.00 | 63 | 1013.0 |
| 20260503205122 | 71 | 113 | 2.0 | 4.0 | 0.00 | 0.00 | 0.00 | 63 | 1013.0 |
| 20260503204123 | 71 | 113 | 2.0 | 3.0 | 0.00 | 0.00 | 0.00 | 65 | 1013.1 |
| 20260503203124 | 71 | 113 | 0.0 | 3.0 | 0.00 | 0.00 | 0.00 | 65 | 1013.2 |
| 20260503202122 | 67 | 113 | 0.0 | 0.0 | 0.00 | 0.00 | 0.00 | 72 | 1013.2 |
| 20260503201123 | 67 | 113 | 0.0 | 0.0 | 0.00 | 0.00 | 0.00 | 72 | 1013.2 |
| 20260503200123 | 67 | 293 | 0.0 | 0.0 | 0.00 | 0.00 | 0.00 | 72 | 1013.6 |
| 20260503195124 | 67 | 293 | 0.0 | 0.0 | 0.00 | 0.00 | 0.00 | 72 | 1013.6 |
| 20260503194122 | 67 | 293 | 0.0 | 0.0 | 0.00 | 0.00 | 0.00 | 74 | 1013.7 |
| 20260503193124 | 67 | 292 | 1.0 | 2.0 | 0.00 | 0.00 | 0.00 | 74 | 1013.9 |
| 20260503192143 | 65 | 292 | 1.0 | 2.0 | 0.00 | 0.00 | 0.00 | 76 | 1013.9 |
| 20260503191122 | 65 | 292 | 0.0 | 2.0 | 0.00 | 0.00 | 0.00 | 76 | 1013.9 |
| 20260503190124 | 65 | 270 | 0.0 | 0.0 | 0.00 | 0.00 | 0.00 | 76 | 1014.1 |
| 20260503185122 | 65 | 270 | 0.0 | 0.0 | 0.00 | 0.00 | 0.00 | 76 | 1014.1 |
| 20260503184122 | 64 | 270 | 0.0 | 0.0 | 0.00 | 0.00 | 0.00 | 77 | 1014.2 |
| 20260503183122 | 64 | 270 | 0.0 | 0.0 | 0.00 | 0.00 | 0.00 | 77 | 1014.2 |
| 20260503182123 | 63 | 270 | 0.0 | 0.0 | 0.00 | 0.00 | 0.00 | 81 | 1014.2 |
| 20260503181144 | 63 | 270 | 0.0 | 0.0 | 0.00 | 0.00 | 0.00 | 81 | 1014.2 |
| 20260503180123 | 63 | 270 | 0.0 | 0.0 | 0.00 | 0.00 | 0.00 | 81 | 1014.2 |
| 20260503175122 | 63 | 270 | 0.0 | 0.0 | 0.00 | 0.00 | 0.00 | 81 | 1014.2 |
| 20260503174124 | 62 | 270 | 0.0 | 0.0 | 0.00 | 0.00 | 0.00 | 82 | 1014.4 |
| 20260503173123 | 62 | 270 | 0.0 | 0.0 | 0.00 | 0.00 | 0.00 | 82 | 1014.4 |
| 20260503172124 | 61 | 270 | 0.0 | 0.0 | 0.00 | 0.00 | 0.00 | 82 | 1014.5 |
| 20260503171122 | 61 | 270 | 0.0 | 0.0 | 0.00 | 0.00 | 0.00 | 82 | 1014.5 |
| 20260503170122 | 61 | 158 | 0.0 | 0.0 | 0.00 | 0.00 | 0.00 | 82 | 1014.5 |
| 20260503160122 | 59 | 158 | 0.0 | 0.0 | 0.00 | 0.00 | 0.00 | 81 | 1014.9 |